Location: Sternwarte Hubelmatt
(47.0367°N, 8.3053°E)
Time: 19:40:00
(UTC+02:00)

UWE-3 - Pass Details

Date: 01 May 2024
Orbit: 569 x 652 km, 97.8° (Epoch: 19 May)

Event Time Altitude Azimuth Distance (km) Brightness Sun altitude
Rises 05:09:03 0° 1° (N) 2,892 ? -10.0°
Reaches altitude 10° 05:11:33 10° 348° (NNW) 1,997 ? -9.6°
Maximum altitude 05:15:00 24° 295° (WNW) 1,326 ? -9.1°
Enters shadow 05:18:18 11° 244° (WSW) 1,961 ? -8.7°
